Powrót do katalogu

SL-12 DEB

LostHEO
NORAD 43525·DEBRIS·🇷🇺 Russia

Wystrzelony Mar 1, 2010 z Baikonur Cosmodrome

Loading…

Następne Przeloty (najbliższe 24 godziny)

TLE

NieaktualneSource: Space-Track

Epoka: Sep 23, 2018, 22:05 UTC

1 43525U 10007X   18266.92067132 +.01153260 +00000-0 +32081+0 0  9991
2 43525 066.0409 135.0331 5723750 040.6770 014.6987 04.43619621004987

Śledź SL-12 DEB w czasie rzeczywistym z AllMySat

Download on the App Store